Location: Monfort
(47.1967°N, 0.2115°W)
Time: 11:00:17
(UTC+00:00)

Cosmos 1943 Rocket - Pass Details

Date: 24 October 2020
Orbit: 813 x 842 km, 71.0° (Epoch: 27 November)

Event Time Altitude Azimuth Distance (km) Brightness Sun altitude
Rises 17:46:24 0° 251° (WSW) 3,353 7.3 -9.1°
Reaches altitude 10° 17:49:26 10° 267° (W) 2,419 6.2 -9.6°
Maximum altitude 17:53:34 21° 316° (NW) 1,767 4.4 -10.3°
Drops below altitude 10° 17:57:42 10° 5° (N) 2,417 4.5 -11.0°
Sets 18:00:45 0° 21° (NNE) 3,350 5.0 -11.5°
